Theta_e
297 297 297 296 296 296 296 296 296 296 296 295 294 294 294 293 293 293 294 294 295 298 306 309 310 310 312 313 314 313 314 314 315 315 316 316 315 315 316 318 321 322 325
297 297 296 296 296 296 296 296 296 296 295 294 294 294 294 293 293 293 293 295 296 296 301 305 306 307 309 309 311 312 312 315 314 313 312 313 315 316 317 316 321 320 321
297 297 296 296 295 295 295 294 295 294 294 294 294 293 293 292 292 293 294 294 295 295 296 302 304 306 306 309 309 307 310 307 308 311 308 308 311 313 316 317 316 317 320
297 297 296 296 295 294 293 293 293 294 294 295 295 294 294 293 292 293 292 292 293 294 295 296 296 299 304 305 305 307 305 310 310 307 305 305 308 307 307 310 313 313 316
297 297 296 295 294 293 293 293 293 293 294 294 294 293 293 291 292 293 292 291 292 293 293 293 292 292 294 299 300 303 306 306 305 303 305 307 306 305 306 308 309 309 310
297 296 295 295 294 293 292 292 293 293 293 293 293 293 291 291 291 290 290 291 291 291 291 290 289 290 290 291 293 299 300 302 302 302 303 303 303 305 307 308 308 308 307
297 296 295 294 294 293 293 292 292 292 292 292 293 292 291 291 291 290 291 290 290 289 289 289 289 289 289 289 292 296 298 300 301 301 301 302 303 303 303 304 305 306 306
296 296 295 294 293 292 292 292 292 291 291 291 291 289 288 289 291 290 290 289 289 288 289 288 288 288 288 288 288 292 296 298 298 298 298 298 299 300 301 302 303 304 305
296 295 295 294 293 292 292 292 292 292 292 289 290 291 286 288 286 289 288 288 288 288 287 287 287 288 288 288 288 291 292 292 293 294 294 295 296 297 298 300 301 302 303
296 295 294 293 293 292 291 291 291 291 292 291 288 289 289 289 285 286 287 287 287 287 287 286 287 287 287 287 288 288 286 290 290 290 291 292 293 294 295 297 298 300 301
295 294 293 293 292 292 291 291 290 291 291 291 291 287 286 286 286 285 285 286 286 286 285 286 285 286 286 287 287 285 284 285 287 288 288 289 290 292 293 294 296 297 298
295 294 293 292 292 291 291 290 290 290 291 291 290 290 289 286 284 284 283 283 283 285 285 285 285 286 286 287 285 283 282 283 285 286 287 287 288 289 290 292 293 294 295
293 294 293 291 291 291 290 290 289 290 290 289 289 288 288 288 287 286 284 282 283 283 284 285 284 285 286 286 284 282 282 282 282 284 285 285 286 287 288 289 291 292 293
294 293 293 291 291 290 290 289 289 289 289 288 288 287 287 286 286 286 285 283 283 282 283 284 284 285 284 284 281 281 281 280 281 282 283 283 284 285 286 288 289 290 291
294 294 294 292 291 290 289 289 288 288 288 287 286 286 285 285 284 284 284 284 283 282 282 282 283 283 283 281 280 280 279 280 280 280 281 282 283 284 286 287 288 289 290
294 293 293 292 291 289 289 288 288 288 287 287 286 285 284 284 283 283 282 282 282 282 280 281 282 282 281 281 281 281 281 281 281 279 280 281 282 284 285 285 286 287 288
294 293 293 291 290 289 288 287 287 287 286 286 285 284 283 283 282 282 281 281 280 279 278 278 279 279 279 279 279 279 280 281 281 281 280 281 282 283 283 283 284 285 286
293 293 292 291 289 288 288 287 287 287 286 285 284 283 282 282 282 281 280 279 278 277 277 276 276 276 276 277 278 277 277 276 277 277 278 280 280 281 281 282 283 284 284
292 292 291 291 290 288 286 286 286 286 286 285 284 283 282 282 281 280 279 278 277 276 275 274 274 274 275 275 276 276 276 277 277 277 278 278 279 279 280 281 282 282 282
290 289 290 290 289 288 286 286 285 285 285 284 284 283 283 282 281 280 278 277 276 275 274 273 273 274 274 276 277 277 277 276 276 277 277 277 278 278 278 279 280 280 280
290 288 288 288 289 287 286 284 284 284 283 282 282 282 282 282 281 280 279 277 276 275 274 273 273 274 276 277 277 276 276 276 277 278 277 278 278 278 278 278 278 279 279
288 288 287 287 286 285 285 285 285 283 282 281 280 280 280 280 279 278 277 277 277 276 275 274 275 276 277 277 276 276 276 277 278 278 277 276 275 276 276 277 278 279 280
287 286 285 285 285 285 284 284 283 282 281 280 280 279 278 278 277 277 277 276 276 276 276 277 277 277 276 276 276 276 277 277 277 276 274 274 274 275 275 275 276 277 279
286 285 284 284 284 284 284 284 283 281 280 280 280 280 279 277 277 277 277 277 278 278 278 277 276 276 277 277 278 278 277 275 273 273 273 274 274 274 274 274 275 277 278
284 283 283 283 282 282 283 284 283 278 279 278 278 278 277 277 278 276 275 276 276 275 275 276 277 278 278 277 277 275 273 272 271 272 272 272 273 274 274 274 275 276 276
283 282 282 282 281 281 282 284 283 278 277 276 276 276 277 278 277 277 275 275 274 275 275 275 276 275 275 274 273 272 271 271 270 270 274 273 273 273 274 275 275 274 273
Wind_Speed
25 23 22 19 16 14 12 9 7 5 3 4 5 6 6 7 8 7 7 6 6 7 10 8 7 7 8 9 8 9 10 11 12 11 11 12 13 14 13 13 13 12 13
27 26 24 21 19 16 13 10 8 6 4 3 3 4 5 7 8 7 6 6 7 8 9 9 9 8 8 8 7 9 11 11 13 13 14 14 16 16 16 12 13 12 13
29 28 26 24 21 18 15 13 9 7 4 2 2 5 6 7 5 5 7 7 8 9 9 10 10 10 10 9 8 10 11 13 11 11 15 16 16 16 15 14 15 17 16
31 30 28 25 22 19 16 14 11 9 5 1 2 5 7 8 4 7 10 12 10 10 9 10 9 10 11 10 10 10 12 13 12 13 15 14 13 17 17 16 16 16 16
34 32 30 26 24 22 20 16 14 10 6 2 2 4 7 5 6 7 6 7 9 10 10 10 9 7 6 11 11 12 11 11 13 14 15 12 14 17 17 15 15 14 16
35 34 31 28 27 24 22 19 14 10 6 2 1 3 5 7 8 9 9 12 12 9 7 8 9 8 6 7 10 12 13 12 12 14 14 15 16 16 15 15 14 16 18
38 36 34 32 30 28 24 21 17 13 7 3 3 5 8 11 11 11 12 11 10 12 10 9 10 7 7 9 10 13 13 13 13 14 15 15 14 15 16 16 17 19 20
39 38 37 36 33 31 27 25 22 16 8 6 4 4 2 2 4 4 6 6 8 13 11 12 10 10 10 10 11 14 15 16 16 17 17 18 19 18 19 18 18 17 17
42 41 39 38 36 34 33 30 26 19 13 8 7 5 2 3 1 3 7 5 2 12 8 9 9 10 9 9 11 14 15 17 17 18 20 20 20 20 20 20 20 20 20
46 43 41 40 38 36 33 30 26 21 17 14 10 8 7 7 3 1 4 6 7 8 9 8 10 7 9 9 10 9 17 16 18 19 18 19 20 22 22 22 21 22 22
45 43 42 40 39 37 35 31 28 25 22 20 15 11 7 6 7 3 3 3 5 2 11 7 8 8 7 9 7 13 17 19 18 18 20 22 21 21 22 23 23 22 23
45 44 43 42 41 40 37 34 30 27 25 20 20 18 15 8 8 6 2 4 4 4 4 5 6 6 6 5 9 21 23 19 18 19 19 20 21 21 20 20 22 23 24
48 50 48 47 45 42 39 36 33 30 28 25 23 20 16 15 11 13 7 3 2 3 1 4 3 4 3 3 14 20 22 22 18 18 19 19 19 20 20 21 21 22 23
50 50 49 47 44 42 40 37 34 31 29 25 24 21 19 17 15 15 8 8 1 2 5 5 5 5 2 8 17 21 24 24 17 17 17 18 19 19 20 21 22 23 24
44 46 48 49 47 45 43 41 38 35 31 28 25 22 21 19 17 16 15 14 8 2 2 6 7 8 7 17 20 24 26 26 23 20 19 19 20 21 21 22 23 24 26
41 42 44 49 49 47 44 43 41 38 35 32 29 26 24 22 20 18 17 16 15 9 2 5 4 12 18 20 21 25 24 24 26 25 23 22 22 23 25 26 27 27 28
41 42 41 46 50 50 48 46 44 41 39 36 33 30 28 25 22 20 19 18 18 18 9 6 12 13 18 18 24 25 26 26 28 29 29 24 26 28 27 27 27 29 30
42 42 42 43 46 51 53 51 49 46 44 42 37 34 31 27 25 23 21 20 20 19 15 9 7 10 14 18 21 22 19 19 20 24 21 27 28 28 28 30 31 31 32
46 44 45 46 49 51 53 54 53 50 48 46 42 39 35 32 30 28 26 23 20 16 18 13 8 9 15 15 19 17 17 20 19 18 24 21 22 23 27 31 33 34 35
44 46 48 48 50 51 53 54 52 51 49 48 44 41 38 36 33 30 26 23 20 19 16 13 10 12 10 12 12 16 18 19 23 26 22 18 21 23 26 32 32 34 34
45 45 43 46 48 50 51 51 51 52 50 46 45 41 39 34 32 27 28 27 23 20 17 11 7 6 5 9 11 16 20 24 23 14 23 22 30 31 32 32 31 32 32
41 42 44 45 45 47 48 52 53 50 48 46 44 42 38 34 32 30 27 25 23 22 18 11 6 5 5 9 12 16 18 22 9 12 31 36 31 31 34 31 29 32 37
37 40 41 43 45 47 41 42 44 47 46 43 43 42 38 36 33 28 23 21 21 19 14 8 10 7 5 12 16 15 19 20 19 30 33 32 30 33 35 32 32 35 37
35 36 38 41 41 48 41 42 43 42 42 45 47 47 44 41 39 36 32 27 27 24 20 19 15 10 8 9 11 14 19 27 29 25 19 20 26 33 35 33 40 40 37
28 31 31 35 40 38 37 42 41 35 36 39 42 43 41 40 36 32 32 32 26 22 17 12 10 9 9 11 10 16 21 19 16 15 21 21 18 34 36 39 32 34 35
26 25 25 28 32 31 35 43 43 36 33 32 32 35 40 39 35 33 34 32 28 23 16 12 13 13 9 12 12 11 13 16 15 12 2 13 26 24 14 25 27 42 35
Wind_Direction
201 197 196 195 193 191 186 180 165 134 95 64 42 26 9 357 355 354 8 22 33 43 49 45 49 42 36 37 37 34 32 27 26 20 19 15 13 1 348 345 332 315 312
206 204 201 200 199 195 191 184 171 153 136 98 57 22 356 346 349 9 38 55 68 68 57 50 48 46 44 35 29 44 40 37 35 25 17 17 18 12 3 1 3 343 323
208 209 207 204 201 197 190 183 172 164 151 115 47 17 355 353 6 60 69 76 87 73 70 60 52 50 50 50 36 20 39 17 21 33 18 17 17 10 9 5 357 358 351
212 211 210 207 202 197 191 186 177 173 170 154 10 359 344 350 56 105 85 75 85 82 80 72 70 60 51 41 28 32 18 36 35 11 4 10 12 4 358 358 2 357 350
214 214 211 206 203 200 196 191 188 190 181 165 24 356 357 56 100 112 91 75 81 84 78 67 50 43 32 28 22 20 27 21 3 2 10 15 8 356 355 357 355 349 351
214 214 212 208 206 203 198 193 193 188 184 169 69 41 60 103 107 100 102 97 84 73 50 25 16 35 52 21 23 18 20 17 12 9 8 5 0 1 360 2 356 345 345
215 214 211 209 207 206 202 198 191 186 169 160 131 89 77 132 95 77 106 92 73 41 16 30 40 30 25 33 40 33 30 24 22 16 16 11 7 1 356 350 341 342 337
216 215 212 210 208 204 202 200 195 185 173 158 148 113 61 133 190 158 153 110 63 30 49 34 41 42 48 50 43 40 38 33 26 17 7 358 354 352 347 343 338 336 333
217 216 214 213 210 209 206 203 201 197 170 160 165 148 109 214 320 194 199 207 284 10 44 41 47 74 75 65 66 64 34 22 16 5 359 353 350 345 342 341 335 330 328
215 214 214 213 213 211 210 208 204 202 189 173 157 171 171 155 168 313 245 238 277 336 23 52 82 81 90 83 88 56 12 13 2 358 354 350 344 339 335 332 327 326 324
214 213 213 213 213 213 212 209 204 202 201 190 180 165 163 160 172 137 229 311 321 331 5 46 42 91 69 108 88 10 7 357 355 350 345 343 340 335 331 326 324 320 312
212 213 214 214 215 214 211 209 209 206 206 205 201 194 180 172 185 167 174 235 257 294 345 100 54 73 93 94 11 351 349 351 347 346 342 336 333 330 327 323 319 315 311
211 213 212 212 213 213 212 210 208 207 207 209 207 205 207 208 198 186 168 155 209 291 295 151 59 125 124 326 343 339 344 346 343 338 335 334 332 329 326 323 319 315 310
213 214 214 216 215 214 212 211 211 211 210 211 208 207 208 207 206 200 180 159 174 267 242 189 203 198 253 316 328 333 340 343 338 334 332 329 329 326 325 322 318 314 310
219 218 216 216 217 214 212 210 210 209 210 210 208 209 207 204 204 205 204 194 166 196 273 195 186 219 294 318 328 338 340 342 340 336 330 328 325 326 325 323 318 313 310
223 221 218 217 217 217 213 210 210 209 207 207 209 207 207 205 203 203 204 201 202 188 209 251 284 288 302 314 327 333 337 339 341 339 331 326 324 325 325 321 317 314 310
224 222 220 218 216 216 215 211 211 209 208 207 208 208 208 205 203 201 203 206 207 204 202 253 263 280 294 312 325 334 337 338 338 339 337 326 323 321 320 318 316 313 312
228 225 221 219 218 217 215 213 211 210 208 207 206 207 209 206 206 205 207 210 209 210 213 220 264 266 289 310 324 330 330 327 323 329 320 316 316 318 319 317 315 313 309
230 224 221 218 218 217 213 214 214 212 211 212 209 208 208 206 206 207 206 208 211 212 219 217 245 267 291 316 329 326 321 328 326 316 311 309 308 310 312 311 310 308 304
235 229 224 221 219 217 214 212 210 213 212 213 212 211 210 211 212 210 210 210 211 208 214 222 242 261 279 325 327 325 332 336 326 325 322 317 316 310 307 305 302 298 296
233 231 226 222 220 218 212 207 206 207 207 206 211 212 213 213 216 217 214 211 209 210 207 217 235 252 299 335 340 332 328 327 332 337 326 330 321 312 305 303 299 297 295
230 228 221 222 216 214 212 211 207 203 205 202 201 207 210 211 212 209 211 216 217 211 202 198 213 233 308 326 324 326 325 329 344 334 325 314 313 305 302 300 301 296 293
223 219 217 217 216 218 209 205 201 201 199 198 198 202 203 206 204 202 197 200 203 204 209 224 232 245 278 310 324 316 318 314 306 308 315 305 310 300 303 301 300 297 294
222 216 214 216 214 218 207 201 198 200 197 199 204 206 204 202 203 202 198 198 208 207 207 218 235 255 288 311 311 311 308 306 304 305 311 292 309 297 307 301 300 299 294
228 219 215 210 212 212 200 195 194 196 194 192 198 202 203 205 202 195 196 199 204 211 212 222 238 259 263 280 286 302 303 311 309 309 312 284 301 306 303 296 298 300 299
235 226 218 216 216 211 199 195 193 189 188 185 188 194 202 206 197 189 196 194 194 203 203 206 221 247 252 283 299 297 297 285 283 311 333 320 306 319 312 298 300 295 296